Time,TemperatureF,DewpointF,PressureIn,WindDirection,WindDirectionDegrees,WindSpeedMPH,WindSpeedGustMPH,Humidity,HourlyPrecipIn,Conditions,Clouds,dailyrainin,SoftwareType,DateUTC
2013-01-15 00:05:00,38.0,34.5,30.26,NE,45,0.0,0.0,87,0.00,,,-99.99,Weather View 32 v70,2013-01-15 08:05:00,
2013-01-15 00:20:00,37.0,33.5,30.26,ESE,112,0.0,0.0,87,0.00,,,-99.99,Weather View 32 v70,2013-01-15 08:20:00,
2013-01-15 00:35:00,36.0,33.1,30.26,ESE,112,0.0,0.0,89,0.00,,,-99.99,Weather View 32 v70,2013-01-15 08:35:00,
2013-01-15 00:50:00,36.0,33.3,30.26,ESE,112,0.0,0.0,90,0.00,,,-99.99,Weather View 32 v70,2013-01-15 08:50:00,
2013-01-15 01:05:00,37.0,34.3,30.25,ESE,112,0.0,0.0,90,0.00,,,-99.99,Weather View 32 v70,2013-01-15 09:05:00,
2013-01-15 01:09:00,37.0,34.3,30.25,ESE,112,0.0,0.0,90,0.00,,,-99.99,Weather View 32 v70,2013-01-15 09:09:00,
2013-01-15 01:20:00,37.0,33.8,30.26,North,0,0.0,0.0,88,0.00,,,-99.99,Weather View 32 v70,2013-01-15 09:20:00,
2013-01-15 01:35:00,36.0,32.8,30.26,NE,45,0.0,0.0,88,0.00,,,-99.99,Weather View 32 v70,2013-01-15 09:35:00,
2013-01-15 01:50:00,37.0,34.3,30.26,NNE,22,0.0,0.0,90,0.00,,,-99.99,Weather View 32 v70,2013-01-15 09:50:00,
2013-01-15 02:05:00,37.0,34.1,30.26,NE,45,0.0,0.0,89,0.00,,,-99.99,Weather View 32 v70,2013-01-15 10:05:00,
2013-01-15 02:09:00,37.0,34.1,30.26,NE,45,0.0,0.0,89,0.00,,,-99.99,Weather View 32 v70,2013-01-15 10:09:00,
2013-01-15 02:20:00,36.0,33.1,30.26,ESE,112,0.0,0.0,89,0.00,,,-99.99,Weather View 32 v70,2013-01-15 10:20:00,
2013-01-15 02:35:00,37.0,34.1,30.27,NNE,22,0.0,0.0,89,0.00,,,-99.99,Weather View 32 v70,2013-01-15 10:35:00,
2013-01-15 02:50:00,35.0,32.1,30.27,NNE,22,0.0,0.0,89,0.00,,,-99.99,Weather View 32 v70,2013-01-15 10:50:00,
2013-01-15 03:05:00,35.0,33.2,30.26,ENE,68,0.0,0.0,93,0.00,,,-99.99,Weather View 32 v70,2013-01-15 11:05:00,
2013-01-15 03:10:00,35.0,33.2,30.26,ENE,68,0.0,0.0,93,0.00,,,-99.99,Weather View 32 v70,2013-01-15 11:10:00,
2013-01-15 03:20:00,35.0,33.2,30.26,ENE,68,0.0,0.0,93,0.00,,,-99.99,Weather View 32 v70,2013-01-15 11:20:00,
2013-01-15 03:35:00,35.0,33.4,30.26,ESE,112,0.0,0.0,94,0.00,,,-99.99,Weather View 32 v70,2013-01-15 11:35:00,
2013-01-15 03:50:00,35.0,33.4,30.26,ENE,68,0.0,0.0,94,0.00,,,-99.99,Weather View 32 v70,2013-01-15 11:50:00,
2013-01-15 04:05:00,35.0,33.4,30.26,NE,45,0.0,0.0,94,0.00,,,-99.99,Weather View 32 v70,2013-01-15 12:05:00,
2013-01-15 04:10:00,35.0,33.4,30.26,NE,45,0.0,0.0,94,0.00,,,-99.99,Weather View 32 v70,2013-01-15 12:10:00,
2013-01-15 04:20:00,34.0,32.2,30.26,East,90,0.0,0.0,93,0.00,,,-99.99,Weather View 32 v70,2013-01-15 12:20:00,
2013-01-15 04:35:00,34.0,32.2,30.26,East,90,0.0,0.0,93,0.00,,,-99.99,Weather View 32 v70,2013-01-15 12:35:00,
2013-01-15 04:50:00,34.0,32.5,30.26,ESE,112,0.0,0.0,94,0.00,,,-99.99,Weather View 32 v70,2013-01-15 12:50:00,
2013-01-15 05:05:00,34.0,32.7,30.25,ESE,112,0.0,0.0,95,0.00,,,-99.99,Weather View 32 v70,2013-01-15 13:05:00,
2013-01-15 05:11:00,34.0,32.7,30.25,ESE,112,0.0,0.0,95,0.00,,,-99.99,Weather View 32 v70,2013-01-15 13:11:00,
2013-01-15 05:20:00,33.0,31.7,30.25,ESE,112,0.0,0.0,95,0.00,,,-99.99,Weather View 32 v70,2013-01-15 13:20:00,
2013-01-15 05:35:00,33.0,32.0,30.26,East,90,0.0,0.0,96,0.00,,,-99.99,Weather View 32 v70,2013-01-15 13:35:00,
2013-01-15 05:50:00,33.0,32.0,30.26,ESE,112,0.0,0.0,96,0.00,,,-99.99,Weather View 32 v70,2013-01-15 13:50:00,
2013-01-15 06:05:00,33.0,32.2,30.26,ESE,112,0.0,0.0,97,0.00,,,-99.99,Weather View 32 v70,2013-01-15 14:05:00,
2013-01-15 06:12:00,33.0,32.2,30.26,ESE,112,0.0,0.0,97,0.00,,,-99.99,Weather View 32 v70,2013-01-15 14:12:00,
2013-01-15 06:20:00,33.0,32.2,30.26,NNE,22,0.0,0.0,97,0.00,,,-99.99,Weather View 32 v70,2013-01-15 14:20:00,
2013-01-15 06:35:00,33.0,32.2,30.26,NNE,22,0.0,0.0,97,0.00,,,-99.99,Weather View 32 v70,2013-01-15 14:35:00,
2013-01-15 06:50:00,34.0,33.2,30.26,NNE,22,0.0,0.0,97,0.00,,,-99.99,Weather View 32 v70,2013-01-15 14:50:00,
2013-01-15 07:05:00,33.0,32.0,30.27,ESE,112,0.0,0.0,96,0.00,,,-99.99,Weather View 32 v70,2013-01-15 15:05:00,
2013-01-15 07:12:00,33.0,32.0,30.27,ESE,112,0.0,0.0,96,0.00,,,-99.99,Weather View 32 v70,2013-01-15 15:12:00,
2013-01-15 07:20:00,34.0,33.0,30.27,ESE,112,0.0,0.0,96,0.00,,,-99.99,Weather View 32 v70,2013-01-15 15:20:00,
2013-01-15 07:35:00,34.0,32.7,30.28,East,90,0.0,0.0,95,0.00,,,-99.99,Weather View 32 v70,2013-01-15 15:35:00,
2013-01-15 07:50:00,33.0,31.7,30.28,NW,315,0.0,0.0,95,0.00,,,-99.99,Weather View 32 v70,2013-01-15 15:50:00,
2013-01-15 08:05:00,33.0,31.7,30.28,ESE,112,0.0,0.0,95,0.00,,,-99.99,Weather View 32 v70,2013-01-15 16:05:00,
2013-01-15 08:13:00,33.0,31.7,30.28,ESE,112,0.0,0.0,95,0.00,,,-99.99,Weather View 32 v70,2013-01-15 16:13:00,
2013-01-15 08:20:00,34.0,33.0,30.29,NE,45,0.0,0.0,96,0.00,,,-99.99,Weather View 32 v70,2013-01-15 16:20:00,
2013-01-15 08:35:00,35.0,34.0,30.29,ESE,112,0.0,0.0,96,0.00,,,-99.99,Weather View 32 v70,2013-01-15 16:35:00,
2013-01-15 08:50:00,36.0,35.0,30.29,East,90,0.0,0.0,96,0.00,,,-99.99,Weather View 32 v70,2013-01-15 16:50:00,
2013-01-15 09:05:00,38.0,36.7,30.29,North,0,0.0,0.0,95,0.00,,,-99.99,Weather View 32 v70,2013-01-15 17:05:00,
2013-01-15 09:13:00,38.0,36.7,30.29,North,0,0.0,0.0,95,0.00,,,-99.99,Weather View 32 v70,2013-01-15 17:13:00,
2013-01-15 09:20:00,39.0,36.9,30.30,NE,45,0.0,0.0,92,0.00,,,-99.99,Weather View 32 v70,2013-01-15 17:20:00,
2013-01-15 09:35:00,42.0,38.4,30.30,ENE,68,0.0,0.0,87,0.00,,,-99.99,Weather View 32 v70,2013-01-15 17:35:00,
2013-01-15 09:50:00,43.0,36.9,30.30,NNE,22,0.0,0.0,79,0.00,,,-99.99,Weather View 32 v70,2013-01-15 17:50:00,
2013-01-15 10:05:00,44.0,33.0,30.31,NE,45,0.0,1.0,65,0.00,,,-99.99,Weather View 32 v70,2013-01-15 18:05:00,
2013-01-15 10:14:00,44.0,33.0,30.31,NE,45,0.0,1.0,65,0.00,,,-99.99,Weather View 32 v70,2013-01-15 18:14:00,
2013-01-15 10:20:00,45.0,33.5,30.31,NNE,22,0.0,1.0,64,0.00,,,-99.99,Weather View 32 v70,2013-01-15 18:20:00,
2013-01-15 10:35:00,45.0,33.5,30.31,East,90,0.0,1.0,64,0.00,,,-99.99,Weather View 32 v70,2013-01-15 18:35:00,
2013-01-15 10:50:00,47.0,35.0,30.31,NNE,22,0.0,1.0,63,0.00,,,-99.99,Weather View 32 v70,2013-01-15 18:50:00,
2013-01-15 11:05:00,48.0,35.2,30.31,NNE,22,0.0,7.0,61,0.00,,,-99.99,Weather View 32 v70,2013-01-15 19:05:00,
2013-01-15 11:14:00,48.0,35.2,30.31,NNE,22,0.0,7.0,61,0.00,,,-99.99,Weather View 32 v70,2013-01-15 19:14:00,
2013-01-15 11:20:00,50.0,34.0,30.30,NNE,22,0.0,7.0,54,0.00,,,-99.99,Weather View 32 v70,2013-01-15 19:20:00,
2013-01-15 11:35:00,51.0,33.0,30.31,NNE,22,0.0,7.0,50,0.00,,,-99.99,Weather View 32 v70,2013-01-15 19:35:00,
2013-01-15 11:50:00,50.0,33.5,30.30,NNE,22,0.0,7.0,53,0.00,,,-99.99,Weather View 32 v70,2013-01-15 19:50:00,
2013-01-15 12:05:00,50.0,33.5,30.30,NNE,22,0.0,4.0,53,0.00,,,-99.99,Weather View 32 v70,2013-01-15 20:05:00,
2013-01-15 12:15:00,50.0,33.5,30.30,NNE,22,0.0,4.0,53,0.00,,,-99.99,Weather View 32 v70,2013-01-15 20:15:00,
2013-01-15 12:20:00,50.0,34.9,30.30,NNE,22,0.0,4.0,56,0.00,,,-99.99,Weather View 32 v70,2013-01-15 20:20:00,
2013-01-15 12:35:00,50.0,34.4,30.30,North,0,0.0,4.0,55,0.00,,,-99.99,Weather View 32 v70,2013-01-15 20:35:00,
2013-01-15 12:50:00,51.0,35.4,30.30,NNE,22,0.0,4.0,55,0.00,,,-99.99,Weather View 32 v70,2013-01-15 20:50:00,
2013-01-15 13:05:00,52.0,36.3,30.30,North,0,0.0,3.0,55,0.00,,,-99.99,Weather View 32 v70,2013-01-15 21:05:00,
2013-01-15 13:16:00,52.0,36.3,30.30,North,0,0.0,3.0,55,0.00,,,-99.99,Weather View 32 v70,2013-01-15 21:16:00,
2013-01-15 13:20:00,53.0,35.8,30.30,North,0,0.0,3.0,52,0.00,,,-99.99,Weather View 32 v70,2013-01-15 21:20:00,
2013-01-15 13:35:00,54.0,34.2,30.30,NNE,22,0.0,5.0,47,0.00,,,-99.99,Weather View 32 v70,2013-01-15 21:35:00,
2013-01-15 13:50:00,54.0,34.2,30.31,NNE,22,0.0,5.0,47,0.00,,,-99.99,Weather View 32 v70,2013-01-15 21:50:00,
2013-01-15 14:05:00,56.0,34.3,30.31,North,0,0.0,8.0,44,0.00,,,-99.99,Weather View 32 v70,2013-01-15 22:05:00,
2013-01-15 14:16:00,56.0,34.3,30.31,North,0,0.0,8.0,44,0.00,,,-99.99,Weather View 32 v70,2013-01-15 22:16:00,
2013-01-15 14:20:00,56.0,33.8,30.32,North,0,0.0,10.0,43,0.00,,,-99.99,Weather View 32 v70,2013-01-15 22:20:00,
2013-01-15 14:35:00,56.0,33.8,30.33,NNW,338,0.0,10.0,43,0.00,,,-99.99,Weather View 32 v70,2013-01-15 22:35:00,
2013-01-15 14:50:00,57.0,34.7,30.33,NNE,22,0.0,10.0,43,0.00,,,-99.99,Weather View 32 v70,2013-01-15 22:50:00,
2013-01-15 15:05:00,54.0,34.7,30.34,NNE,22,0.0,10.0,48,0.00,,,-99.99,Weather View 32 v70,2013-01-15 23:05:00,
2013-01-15 15:17:00,54.0,34.7,30.34,NNE,22,0.0,10.0,48,0.00,,,-99.99,Weather View 32 v70,2013-01-15 23:17:00,
2013-01-15 15:35:00,55.0,35.6,30.35,NNE,22,0.0,8.0,48,0.00,,,-99.99,Weather View 32 v70,2013-01-15 23:35:00,
2013-01-15 15:50:00,54.0,34.7,30.36,NNE,22,0.0,10.0,48,0.00,,,-99.99,Weather View 32 v70,2013-01-15 23:50:00,
2013-01-15 16:05:00,53.0,35.3,30.36,NNE,22,0.0,10.0,51,0.00,,,-99.99,Weather View 32 v70,2013-01-16 00:05:00,
2013-01-15 16:17:00,53.0,35.3,30.36,NNE,22,0.0,10.0,51,0.00,,,-99.99,Weather View 32 v70,2013-01-16 00:17:00,
2013-01-15 16:20:00,52.0,35.8,30.36,North,0,0.0,10.0,54,0.00,,,-99.99,Weather View 32 v70,2013-01-16 00:20:00,
2013-01-15 16:35:00,51.0,35.8,30.36,NNE,22,0.0,10.0,56,0.00,,,-99.99,Weather View 32 v70,2013-01-16 00:35:00,
2013-01-15 16:50:00,50.0,36.2,30.36,North,0,0.0,0.0,59,0.00,,,-99.99,Weather View 32 v70,2013-01-16 00:50:00,
2013-01-15 17:05:00,50.0,36.2,30.36,North,0,0.0,0.0,59,0.00,,,-99.99,Weather View 32 v70,2013-01-16 01:05:00,
2013-01-15 17:18:00,50.0,36.2,30.36,North,0,0.0,0.0,59,0.00,,,-99.99,Weather View 32 v70,2013-01-16 01:18:00,
2013-01-15 17:20:00,50.0,36.2,30.35,NNE,22,0.0,0.0,59,0.00,,,-99.99,Weather View 32 v70,2013-01-16 01:20:00,
2013-01-15 17:35:00,50.0,36.6,30.35,NNE,22,0.0,0.0,60,0.00,,,-99.99,Weather View 32 v70,2013-01-16 01:35:00,
2013-01-15 17:50:00,49.0,35.7,30.34,North,0,0.0,0.0,60,0.00,,,-99.99,Weather View 32 v70,2013-01-16 01:50:00,
2013-01-15 18:05:00,46.0,35.6,30.33,NNW,338,0.0,0.0,67,0.00,,,-99.99,Weather View 32 v70,2013-01-16 02:05:00,
2013-01-15 18:18:00,46.0,35.6,30.33,NNW,338,0.0,0.0,67,0.00,,,-99.99,Weather View 32 v70,2013-01-16 02:18:00,
2013-01-15 18:35:00,44.0,34.8,30.33,NNE,22,0.0,0.0,70,0.00,,,-99.99,Weather View 32 v70,2013-01-16 02:35:00,
2013-01-15 18:50:00,43.0,34.6,30.32,NNE,22,0.0,0.0,72,0.00,,,-99.99,Weather View 32 v70,2013-01-16 02:50:00,
2013-01-15 19:05:00,43.0,34.9,30.32,NNE,22,0.0,0.0,73,0.00,,,-99.99,Weather View 32 v70,2013-01-16 03:05:00,
2013-01-15 19:19:00,43.0,34.9,30.32,NNE,22,0.0,0.0,73,0.00,,,-99.99,Weather View 32 v70,2013-01-16 03:19:00,
2013-01-15 19:35:00,43.0,35.6,30.32,NNE,22,0.0,0.0,75,0.00,,,-99.99,Weather View 32 v70,2013-01-16 03:35:00,
2013-01-15 19:50:00,42.0,34.6,30.31,NNE,22,0.0,0.0,75,0.00,,,-99.99,Weather View 32 v70,2013-01-16 03:50:00,
2013-01-15 20:05:00,42.0,35.3,30.31,NNE,22,0.0,0.0,77,0.00,,,-99.99,Weather View 32 v70,2013-01-16 04:05:00,
2013-01-15 20:20:00,42.0,35.3,30.31,NNE,22,0.0,0.0,77,0.00,,,-99.99,Weather View 32 v70,2013-01-16 04:20:00,
2013-01-15 20:35:00,41.0,34.3,30.29,NNE,22,0.0,0.0,77,0.00,,,-99.99,Weather View 32 v70,2013-01-16 04:35:00,
2013-01-15 20:50:00,41.0,35.0,30.29,ESE,112,0.0,0.0,79,0.00,,,-99.99,Weather View 32 v70,2013-01-16 04:50:00,
2013-01-15 21:05:00,40.0,34.0,30.29,ESE,112,0.0,0.0,79,0.00,,,-99.99,Weather View 32 v70,2013-01-16 05:05:00,
2013-01-15 21:20:00,40.0,34.3,30.29,East,90,0.0,0.0,80,0.00,,,-99.99,Weather View 32 v70,2013-01-16 05:20:00,
2013-01-15 21:35:00,38.0,32.7,30.29,East,90,0.0,0.0,81,0.00,,,-99.99,Weather View 32 v70,2013-01-16 05:35:00,
2013-01-15 21:50:00,38.0,33.6,30.29,East,90,0.0,0.0,84,0.00,,,-99.99,Weather View 32 v70,2013-01-16 05:50:00,
2013-01-15 22:05:00,37.0,32.9,30.29,ESE,112,0.0,0.0,85,0.00,,,-99.99,Weather View 32 v70,2013-01-16 06:05:00,
2013-01-15 22:20:00,38.0,34.2,30.28,ENE,68,0.0,0.0,86,0.00,,,-99.99,Weather View 32 v70,2013-01-16 06:20:00,
2013-01-15 22:21:00,38.0,34.2,30.28,ENE,68,0.0,0.0,86,0.00,,,-99.99,Weather View 32 v70,2013-01-16 06:21:00,
2013-01-15 22:35:00,38.0,34.2,30.28,East,90,0.0,0.0,86,0.00,,,-99.99,Weather View 32 v70,2013-01-16 06:35:00,
2013-01-15 22:50:00,39.0,35.2,30.28,ESE,112,0.0,0.0,86,0.00,,,-99.99,Weather View 32 v70,2013-01-16 06:50:00,
2013-01-15 23:05:00,37.0,32.9,30.28,NNW,338,0.0,0.0,85,0.00,,,-99.99,Weather View 32 v70,2013-01-16 07:05:00,
2013-01-15 23:20:00,37.0,33.5,30.27,NNE,22,0.0,0.0,87,0.00,,,-99.99,Weather View 32 v70,2013-01-16 07:20:00,
2013-01-15 23:21:00,37.0,33.5,30.27,NNE,22,0.0,0.0,87,0.00,,,-99.99,Weather View 32 v70,2013-01-16 07:21:00,
2013-01-15 23:35:00,37.0,33.5,30.27,East,90,0.0,0.0,87,0.00,,,-99.99,Weather View 32 v70,2013-01-16 07:35:00,
2013-01-15 23:50:00,37.0,33.5,30.27,North,0,0.0,0.0,87,0.00,,,-99.99,Weather View 32 v70,2013-01-16 07:50:00,